Location: Newark
(35.5300°N, 14.3000°E)
Time: 03:41:57
(UTC+00:00)

ISS - Visible Passes

Search period start: 21 October 2019 00:00
Search period end: 31 October 2019 00:00
Orbit: 411 x 421 km, 51.6° (Epoch: 21 October)

Date Brightness Start Highest point End Pass type
(mag) Time Alt. Az. Time Alt. Az. Time Alt. Az.
23 Oct -1.0 03:59:42 10° S 04:02:11 19° SE 04:04:40 10° E visible
24 Oct -0.5 03:13:18 10° SE 03:13:47 10° SE 03:14:15 10° ESE visible
24 Oct -3.7 04:46:46 10° WSW 04:50:05 64° NW 04:53:26 10° NE visible
25 Oct -3.4 03:59:31 22° SSW 04:01:31 65° SE 04:04:51 10° NE visible
26 Oct -1.7 03:13:48 28° ESE 03:13:48 28° ESE 03:16:03 10° ENE visible
26 Oct -2.4 04:46:58 10° W 04:49:45 23° NNW 04:52:31 10° NNE visible
27 Oct -3.2 04:00:46 37° NW 04:01:01 38° NW 04:04:12 10° NNE visible
28 Oct -1.3 03:14:37 19° NE 03:14:37 19° NE 03:15:43 10° NE visible
28 Oct -1.5 04:48:16 10° NW 04:49:35 12° NNW 04:50:55 10° N visible
29 Oct -1.7 04:01:14 16° NNW 04:01:14 16° NNW 04:02:59 10° NNE visible
